| time (UTC) | temp C | wind direction | speed KPH | gust KPH | rain 1hr cm | rain 24hr cm | rain mn cm | humidity % | barometer mb |
| 20260903060114 | 23 | 12 | 0.0 | 0.0 | 0.00 | 0.00 | 0.00 | 93 | 1019.5 |
| 20260903055611 | 23 | 12 | 0.0 | 0.0 | 0.00 | 0.00 | 0.00 | 93 | 1019.6 |
| 20260903055109 | 23 | 12 | 0.0 | 0.0 | 0.00 | 0.00 | 0.00 | 92 | 1019.5 |
| 20260903054604 | 23 | 12 | 0.0 | 0.0 | 0.00 | 0.00 | 0.00 | 92 | 1019.5 |
| 20260903054100 | 23 | 12 | 0.0 | 0.0 | 0.00 | 0.00 | 0.00 | 92 | 1019.3 |
| 20260903053555 | 23 | 12 | 0.0 | 0.0 | 0.00 | 0.00 | 0.00 | 92 | 1019.5 |
| 20260903053052 | 23 | 12 | 0.0 | 0.0 | 0.00 | 0.00 | 0.00 | 92 | 1019.3 |
| 20260903052548 | 23 | 12 | 0.0 | 0.0 | 0.00 | 0.00 | 0.00 | 92 | 1019.4 |
| 20260903052043 | 23 | 12 | 0.0 | 0.0 | 0.00 | 0.00 | 0.00 | 92 | 1019.5 |
| 20260903051543 | 23 | 12 | 0.0 | 0.0 | 0.00 | 0.00 | 0.00 | 91 | 1019.5 |
| 20260903051038 | 23 | 11 | 0.0 | 0.0 | 0.00 | 0.00 | 0.00 | 91 | 1019.4 |
| 20260903050537 | 23 | 12 | 0.0 | 0.0 | 0.00 | 0.00 | 0.00 | 91 | 1019.4 |
| 20260903050033 | 23 | 11 | 0.0 | 0.0 | 0.00 | 0.00 | 0.00 | 91 | 1019.1 |
| 20260903045532 | 23 | 11 | 0.0 | 0.0 | 0.00 | 0.00 | 0.00 | 91 | 1019.3 |
| 20260903045029 | 23 | 11 | 0.0 | 0.0 | 0.00 | 0.00 | 0.00 | 91 | 1019.3 |
| 20260903044525 | 23 | 11 | 0.0 | 0.0 | 0.00 | 0.00 | 0.00 | 90 | 1019.2 |
| 20260903044020 | 23 | 11 | 0.0 | 0.0 | 0.00 | 0.00 | 0.00 | 90 | 1019.1 |
| 20260903043516 | 23 | 11 | 0.0 | 0.0 | 0.00 | 0.00 | 0.00 | 90 | 1019.1 |
| 20260903043015 | 23 | 13 | 0.0 | 0.0 | 0.00 | 0.00 | 0.00 | 90 | 1019.2 |
| 20260903042510 | 24 | 13 | 0.0 | 0.0 | 0.00 | 0.00 | 0.00 | 90 | 1019.1 |
| 20260903042006 | 24 | 13 | 0.0 | 0.0 | 0.00 | 0.00 | 0.00 | 90 | 1019.0 |
| 20260903041502 | 24 | 13 | 0.0 | 0.0 | 0.00 | 0.00 | 0.00 | 90 | 1019.2 |
| 20260903040957 | 24 | 13 | 0.0 | 0.0 | 0.00 | 0.00 | 0.00 | 90 | 1019.2 |
| 20260903040456 | 24 | 13 | 0.0 | 0.0 | 0.00 | 0.00 | 0.00 | 89 | 1019.2 |
| 20260903035953 | 24 | 13 | 0.0 | 0.0 | 0.00 | 0.00 | 0.00 | 89 | 1019.0 |
| 20260903035448 | 24 | 13 | 0.0 | 0.0 | 0.00 | 0.00 | 0.00 | 89 | 1019.0 |
| 20260903034943 | 24 | 13 | 0.0 | 0.0 | 0.00 | 0.00 | 0.00 | 89 | 1019.0 |
| 20260903034438 | 24 | 12 | 0.0 | 0.0 | 0.00 | 0.00 | 0.00 | 89 | 1019.3 |
| 20260903033933 | 25 | 12 | 0.0 | 0.0 | 0.00 | 0.00 | 0.00 | 89 | 1019.3 |
| 20260903033428 | 25 | 12 | 0.0 | 0.0 | 0.00 | 0.00 | 0.00 | 89 | 1019.3 |
| 20260903032923 | 25 | 12 | 0.0 | 0.0 | 0.00 | 0.00 | 0.00 | 89 | 1019.2 |
| 20260903032419 | 25 | 12 | 0.0 | 0.0 | 0.00 | 0.00 | 0.00 | 88 | 1019.1 |
| 20260903031914 | 25 | 12 | 0.0 | 0.0 | 0.00 | 0.00 | 0.00 | 87 | 1019.5 |
| 20260903031414 | 25 | 12 | 0.0 | 0.0 | 0.00 | 0.00 | 0.00 | 87 | 1019.5 |
| 20260903030909 | 25 | 12 | 0.0 | 0.0 | 0.00 | 0.00 | 0.00 | 87 | 1019.4 |
| 20260903030405 | 25 | 12 | 0.0 | 0.0 | 0.00 | 0.00 | 0.00 | 87 | 1019.4 |
| 20260903025901 | 25 | 12 | 0.0 | 0.0 | 0.00 | 0.00 | 0.00 | 86 | 1019.6 |
| 20260903025356 | 25 | 12 | 0.0 | 0.0 | 0.00 | 0.00 | 0.00 | 86 | 1019.6 |
| 20260903024856 | 25 | 12 | 0.0 | 0.0 | 0.00 | 0.00 | 0.00 | 86 | 1019.6 |
| 20260903024350 | 25 | 12 | 0.0 | 0.0 | 0.00 | 0.00 | 0.00 | 86 | 1019.7 |
| 20260903023845 | 25 | 12 | 0.0 | 0.0 | 0.00 | 0.00 | 0.00 | 86 | 1019.7 |
| 20260903023341 | 25 | 12 | 0.0 | 0.0 | 0.00 | 0.00 | 0.00 | 85 | 1019.6 |
| 20260903022836 | 26 | 15 | 0.0 | 0.0 | 0.00 | 0.00 | 0.00 | 85 | 1019.5 |
| 20260903022335 | 26 | 15 | 0.0 | 0.0 | 0.00 | 0.00 | 0.00 | 85 | 1019.7 |
| 20260903021834 | 26 | 14 | 0.0 | 0.0 | 0.00 | 0.00 | 0.00 | 85 | 1019.6 |
| 20260903021330 | 26 | 15 | 0.0 | 0.0 | 0.00 | 0.00 | 0.00 | 84 | 1019.4 |
| 20260903020830 | 26 | 15 | 0.0 | 0.0 | 0.00 | 0.00 | 0.00 | 84 | 1019.5 |
| 20260903020325 | 26 | 11 | 0.0 | 0.0 | 0.00 | 0.00 | 0.00 | 84 | 1019.4 |
| 20260903015819 | 26 | 13 | 0.0 | 0.0 | 0.00 | 0.00 | 0.00 | 84 | 1019.5 |
| 20260903015315 | 26 | 13 | 0.0 | 0.0 | 0.00 | 0.00 | 0.00 | 84 | 1019.5 |
| 20260903014810 | 26 | 13 | 0.0 | 0.0 | 0.00 | 0.00 | 0.00 | 84 | 1019.6 |
| 20260903014310 | 26 | 13 | 0.0 | 0.0 | 0.00 | 0.00 | 0.00 | 84 | 1019.5 |
| 20260903013805 | 26 | 13 | 0.0 | 0.0 | 0.00 | 0.00 | 0.00 | 83 | 1019.5 |
| 20260903013303 | 26 | 13 | 0.0 | 0.0 | 0.00 | 0.00 | 0.00 | 83 | 1019.7 |
| 20260903012803 | 26 | 13 | 0.0 | 0.0 | 0.00 | 0.00 | 0.00 | 83 | 1019.6 |
| 20260903012258 | 26 | 13 | 0.0 | 0.0 | 0.00 | 0.00 | 0.00 | 82 | 1019.4 |
| 20260903011757 | 27 | 13 | 0.0 | 0.0 | 0.00 | 0.00 | 0.00 | 82 | 1019.5 |
| 20260903011256 | 27 | 14 | 0.0 | 0.0 | 0.00 | 0.00 | 0.00 | 82 | 1019.5 |
| 20260903010752 | 27 | 14 | 0.0 | 0.0 | 0.00 | 0.00 | 0.00 | 81 | 1019.3 |
| 20260903010247 | 27 | 14 | 0.0 | 0.0 | 0.00 | 0.00 | 0.00 | 80 | 1019.2 |
| 20260903005746 | 27 | 14 | 0.0 | 0.0 | 0.00 | 0.00 | 0.00 | 80 | 1019.2 |
| 20260903005241 | 27 | 14 | 0.0 | 0.0 | 0.00 | 0.00 | 0.00 | 79 | 1019.1 |
| 20260903004736 | 27 | 14 | 0.0 | 0.0 | 0.00 | 0.00 | 0.00 | 79 | 1019.1 |
| 20260903004232 | 27 | 14 | 0.0 | 0.0 | 0.00 | 0.00 | 0.00 | 78 | 1019.2 |
| 20260903003727 | 28 | 14 | 0.0 | 0.0 | 0.00 | 0.00 | 0.00 | 77 | 1019.0 |
| 20260903003223 | 28 | 14 | 0.0 | 0.0 | 0.00 | 0.00 | 0.00 | 76 | 1019.2 |
| 20260903002717 | 28 | 14 | 0.0 | 0.0 | 0.00 | 0.00 | 0.00 | 75 | 1018.9 |
| 20260903002211 | 28 | 14 | 0.0 | 0.0 | 0.00 | 0.00 | 0.00 | 75 | 1018.9 |
| 20260903001707 | 28 | 14 | 0.0 | 0.0 | 0.00 | 0.00 | 0.00 | 73 | 1018.8 |
| 20260903001200 | 29 | 14 | 0.0 | 0.0 | 0.00 | 0.00 | 0.00 | 72 | 1019.0 |
| 20260903000650 | 29 | 14 | 0.0 | 0.0 | 0.00 | 0.00 | 0.00 | 71 | 1018.9 |
| 20260903000144 | 30 | 14 | 0.0 | 0.0 | 0.00 | 0.00 | 0.00 | 70 | 1018.9 |
| 20260902235642 | 30 | 14 | 0.0 | 0.0 | 0.00 | 0.00 | 0.00 | 69 | 1018.8 |
| 20260902235132 | 30 | 15 | 0.0 | 0.0 | 0.00 | 0.00 | 0.00 | 69 | 1018.9 |
| 20260902234626 | 30 | 15 | 0.0 | 0.0 | 0.00 | 0.00 | 0.00 | 68 | 1019.1 |
| 20260902234124 | 31 | 15 | 0.0 | 0.0 | 0.00 | 0.00 | 0.00 | 67 | 1018.9 |
| 20260902233619 | 31 | 14 | 0.0 | 0.0 | 0.00 | 0.00 | 0.00 | 65 | 1018.7 |
| 20260902233114 | 31 | 15 | 0.0 | 0.0 | 0.00 | 0.00 | 0.00 | 65 | 1018.8 |
| 20260902232608 | 32 | 15 | 0.0 | 0.0 | 0.00 | 0.00 | 0.00 | 63 | 1018.9 |
| 20260902232102 | 32 | 15 | 0.0 | 0.0 | 0.00 | 0.00 | 0.00 | 62 | 1018.9 |
| 20260902231601 | 32 | 13 | 0.0 | 1.6 | 0.00 | 0.00 | 0.00 | 61 | 1019.0 |
| 20260902231056 | 32 | 12 | 0.0 | 1.6 | 0.00 | 0.00 | 0.00 | 60 | 1018.9 |
| 20260902230551 | 32 | 13 | 0.0 | 0.0 | 0.00 | 0.00 | 0.00 | 59 | 1019.0 |
| 20260902230050 | 33 | 12 | 1.6 | 1.6 | 0.00 | 0.00 | 0.00 | 58 | 1019.1 |
| 20260902225546 | 33 | 19 | 0.0 | 0.0 | 0.00 | 0.00 | 0.00 | 58 | 1019.0 |
| 20260902225044 | 33 | 11 | 1.6 | 1.6 | 0.00 | 0.00 | 0.00 | 56 | 1018.8 |
| 20260902224543 | 33 | 10 | 1.6 | 1.6 | 0.00 | 0.00 | 0.00 | 55 | 1018.8 |
| 20260902224039 | 33 | 10 | 1.6 | 3.2 | 0.00 | 0.00 | 0.00 | 55 | 1019.0 |
| 20260902223536 | 33 | 14 | 0.0 | 1.6 | 0.00 | 0.00 | 0.00 | 55 | 1019.0 |
| 20260902223034 | 34 | 13 | 1.6 | 3.2 | 0.00 | 0.00 | 0.00 | 54 | 1019.0 |
| 20260902222533 | 34 | 15 | 0.0 | 3.2 | 0.00 | 0.00 | 0.00 | 54 | 1019.0 |
| 20260902222032 | 34 | 12 | 0.0 | 3.2 | 0.00 | 0.00 | 0.00 | 54 | 1019.0 |
| 20260902221527 | 33 | 10 | 1.6 | 1.6 | 0.00 | 0.00 | 0.00 | 54 | 1019.0 |
| 20260902221023 | 34 | 318 | 1.6 | 3.2 | 0.00 | 0.00 | 0.00 | 53 | 1019.1 |
| 20260902220518 | 34 | 1 | 3.2 | 3.2 | 0.00 | 0.00 | 0.00 | 52 | 1019.2 |
| 20260902220012 | 34 | 9 | 1.6 | 1.6 | 0.00 | 0.00 | 0.00 | 54 | 1019.1 |
| 20260902215508 | 34 | 5 | 3.2 | 3.2 | 0.00 | 0.00 | 0.00 | 52 | 1018.9 |
| 20260902215004 | 34 | 41 | 1.6 | 8.0 | 0.00 | 0.00 | 0.00 | 52 | 1018.9 |
| 20260902214503 | 35 | 11 | 0.0 | 1.6 | 0.00 | 0.00 | 0.00 | 52 | 1019.0 |
| 20260902214002 | 35 | 16 | 0.0 | 1.6 | 0.00 | 0.00 | 0.00 | 51 | 1019.3 |
| 20260902213458 | 35 | 9 | 1.6 | 3.2 | 0.00 | 0.00 | 0.00 | 54 | 1019.1 |
| 20260902212956 | 35 | 323 | 3.2 | 4.8 | 0.00 | 0.00 | 0.00 | 52 | 1019.2 |
| 20260902212452 | 35 | 358 | 3.2 | 3.2 | 0.00 | 0.00 | 0.00 | 51 | 1019.0 |
| 20260902211949 | 35 | 20 | 3.2 | 4.8 | 0.00 | 0.00 | 0.00 | 52 | 1019.2 |
| 20260902211445 | 35 | 6 | 1.6 | 3.2 | 0.00 | 0.00 | 0.00 | 53 | 1019.2 |
| 20260902210945 | 35 | 21 | 1.6 | 4.8 | 0.00 | 0.00 | 0.00 | 52 | 1019.2 |
| 20260902210440 | 35 | 11 | 3.2 | 4.8 | 0.00 | 0.00 | 0.00 | 51 | 1019.2 |
| 20260902205938 | 35 | 18 | 1.6 | 4.8 | 0.00 | 0.00 | 0.00 | 52 | 1019.3 |
| 20260902205433 | 35 | 14 | 0.0 | 3.2 | 0.00 | 0.00 | 0.00 | 52 | 1019.3 |
| 20260902204929 | 35 | 222 | 3.2 | 4.8 | 0.00 | 0.00 | 0.00 | 52 | 1019.5 |
| 20260902204428 | 35 | 13 | 1.6 | 3.2 | 0.00 | 0.00 | 0.00 | 53 | 1019.2 |
| 20260902203924 | 35 | 15 | 0.0 | 1.6 | 0.00 | 0.00 | 0.00 | 52 | 1019.4 |
| 20260902203419 | 35 | 13 | 0.0 | 3.2 | 0.00 | 0.00 | 0.00 | 54 | 1019.4 |
| 20260902202918 | 35 | 12 | 4.8 | 4.8 | 0.00 | 0.00 | 0.00 | 51 | 1019.5 |
| 20260902202414 | 35 | 12 | 1.6 | 3.2 | 0.00 | 0.00 | 0.00 | 52 | 1019.5 |
| 20260902201911 | 35 | 12 | 0.0 | 1.6 | 0.00 | 0.00 | 0.00 | 53 | 1019.5 |
| 20260902201411 | 35 | 8 | 1.6 | 3.2 | 0.00 | 0.00 | 0.00 | 51 | 1019.7 |
| 20260902200905 | 35 | 6 | 1.6 | 8.0 | 0.00 | 0.00 | 0.00 | 51 | 1019.6 |
| 20260902200401 | 35 | 10 | 1.6 | 1.6 | 0.00 | 0.00 | 0.00 | 53 | 1019.6 |
| 20260902195856 | 35 | 8 | 0.0 | 1.6 | 0.00 | 0.00 | 0.00 | 49 | 1019.7 |
| 20260902195356 | 35 | 15 | 0.0 | 3.2 | 0.00 | 0.00 | 0.00 | 50 | 1019.8 |
| 20260902194851 | 35 | 4 | 3.2 | 4.8 | 0.00 | 0.00 | 0.00 | 50 | 1020.0 |
| 20260902194345 | 35 | 12 | 0.0 | 1.6 | 0.00 | 0.00 | 0.00 | 50 | 1019.8 |
| 20260902193840 | 35 | 28 | 3.2 | 4.8 | 0.00 | 0.00 | 0.00 | 48 | 1020.0 |
| 20260902193336 | 35 | 5 | 1.6 | 3.2 | 0.00 | 0.00 | 0.00 | 49 | 1020.1 |
| 20260902192835 | 35 | 351 | 1.6 | 3.2 | 0.00 | 0.00 | 0.00 | 50 | 1020.3 |
| 20260902192333 | 35 | 343 | 1.6 | 3.2 | 0.00 | 0.00 | 0.00 | 48 | 1020.1 |
| 20260902191828 | 35 | 2 | 3.2 | 4.8 | 0.00 | 0.00 | 0.00 | 50 | 1020.2 |
| 20260902191324 | 35 | 352 | 4.8 | 4.8 | 0.00 | 0.00 | 0.00 | 48 | 1020.4 |
| 20260902190819 | 35 | 340 | 3.2 | 4.8 | 0.00 | 0.00 | 0.00 | 47 | 1020.3 |
| 20260902190318 | 36 | 352 | 1.6 | 4.8 | 0.00 | 0.00 | 0.00 | 48 | 1020.5 |
| 20260902185814 | 36 | 51 | 3.2 | 3.2 | 0.00 | 0.00 | 0.00 | 49 | 1020.2 |
| 20260902185309 | 35 | 359 | 1.6 | 3.2 | 0.00 | 0.00 | 0.00 | 50 | 1020.3 |
| 20260902184805 | 35 | 323 | 1.6 | 3.2 | 0.00 | 0.00 | 0.00 | 47 | 1020.3 |
| 20260902184300 | 35 | 359 | 1.6 | 3.2 | 0.00 | 0.00 | 0.00 | 51 | 1020.6 |
| 20260902183755 | 35 | 351 | 4.8 | 9.7 | 0.00 | 0.00 | 0.00 | 51 | 1020.5 |
| 20260902183252 | 35 | 358 | 1.6 | 4.8 | 0.00 | 0.00 | 0.00 | 49 | 1020.6 |
| 20260902182748 | 35 | 5 | 1.6 | 3.2 | 0.00 | 0.00 | 0.00 | 50 | 1020.5 |
| 20260902182244 | 35 | 353 | 3.2 | 3.2 | 0.00 | 0.00 | 0.00 | 50 | 1020.5 |
| 20260902181740 | 35 | 296 | 3.2 | 3.2 | 0.00 | 0.00 | 0.00 | 54 | 1020.9 |
| 20260902181240 | 35 | 2 | 0.0 | 3.2 | 0.00 | 0.00 | 0.00 | 52 | 1021.0 |
| 20260902180734 | 35 | 24 | 0.0 | 3.2 | 0.00 | 0.00 | 0.00 | 50 | 1020.8 |
| 20260902180230 | 35 | 5 | 1.6 | 3.2 | 0.00 | 0.00 | 0.00 | 52 | 1020.9 |
| 20260902175725 | 35 | 6 | 0.0 | 8.0 | 0.00 | 0.00 | 0.00 | 53 | 1021.1 |
| 20260902175221 | 35 | 13 | 0.0 | 0.0 | 0.00 | 0.00 | 0.00 | 56 | 1021.1 |
| 20260902174717 | 35 | 354 | 3.2 | 4.8 | 0.00 | 0.00 | 0.00 | 54 | 1021.0 |
| 20260902174213 | 35 | 353 | 1.6 | 3.2 | 0.00 | 0.00 | 0.00 | 53 | 1021.0 |
| 20260902173708 | 35 | 357 | 0.0 | 3.2 | 0.00 | 0.00 | 0.00 | 54 | 1021.0 |
| 20260902173202 | 35 | 20 | 0.0 | 1.6 | 0.00 | 0.00 | 0.00 | 54 | 1021.1 |
| 20260902172657 | 34 | 6 | 1.6 | 8.0 | 0.00 | 0.00 | 0.00 | 56 | 1021.1 |
| 20260902172156 | 34 | 359 | 0.0 | 3.2 | 0.00 | 0.00 | 0.00 | 56 | 1021.2 |
| 20260902171651 | 34 | 7 | 1.6 | 1.6 | 0.00 | 0.00 | 0.00 | 54 | 1021.2 |
| 20260902171147 | 34 | 4 | 4.8 | 8.0 | 0.00 | 0.00 | 0.00 | 54 | 1021.4 |
| 20260902170642 | 34 | 6 | 1.6 | 3.2 | 0.00 | 0.00 | 0.00 | 56 | 1021.4 |
| 20260902170137 | 35 | 8 | 1.6 | 4.8 | 0.00 | 0.00 | 0.00 | 55 | 1021.2 |
| 20260902165633 | 34 | 11 | 0.0 | 1.6 | 0.00 | 0.00 | 0.00 | 57 | 1021.4 |
| 20260902165127 | 34 | 1 | 1.6 | 3.2 | 0.00 | 0.00 | 0.00 | 55 | 1021.3 |
| 20260902164622 | 33 | 8 | 1.6 | 3.2 | 0.00 | 0.00 | 0.00 | 58 | 1021.3 |
| 20260902164121 | 33 | 7 | 0.0 | 3.2 | 0.00 | 0.00 | 0.00 | 57 | 1021.6 |
| 20260902163616 | 33 | 9 | 1.6 | 1.6 | 0.00 | 0.00 | 0.00 | 57 | 1021.6 |
| 20260902163115 | 33 | 16 | 1.6 | 3.2 | 0.00 | 0.00 | 0.00 | 58 | 1021.9 |
| 20260902162614 | 33 | 337 | 1.6 | 3.2 | 0.00 | 0.00 | 0.00 | 57 | 1021.7 |
| 20260902162109 | 33 | 333 | 1.6 | 3.2 | 0.00 | 0.00 | 0.00 | 57 | 1021.8 |
| 20260902161603 | 33 | 13 | 0.0 | 3.2 | 0.00 | 0.00 | 0.00 | 60 | 1021.8 |
| 20260902161100 | 33 | 11 | 1.6 | 3.2 | 0.00 | 0.00 | 0.00 | 61 | 1022.0 |
| 20260902160550 | 33 | 17 | 1.6 | 4.8 | 0.00 | 0.00 | 0.00 | 59 | 1021.9 |
| 20260902160045 | 33 | 7 | 0.0 | 3.2 | 0.00 | 0.00 | 0.00 | 60 | 1021.9 |
| 20260902155538 | 33 | 10 | 0.0 | 1.6 | 0.00 | 0.00 | 0.00 | 61 | 1021.9 |
| 20260902155037 | 32 | 6 | 1.6 | 3.2 | 0.00 | 0.00 | 0.00 | 62 | 1021.8 |
| 20260902154532 | 32 | 0 | 1.6 | 3.2 | 0.00 | 0.00 | 0.00 | 61 | 1021.7 |
| 20260902154027 | 32 | 10 | 0.0 | 4.8 | 0.00 | 0.00 | 0.00 | 62 | 1021.8 |
| 20260902153526 | 32 | 6 | 0.0 | 1.6 | 0.00 | 0.00 | 0.00 | 62 | 1021.9 |
| 20260902153021 | 32 | 6 | 1.6 | 3.2 | 0.00 | 0.00 | 0.00 | 62 | 1022.0 |
| 20260902152518 | 32 | 353 | 1.6 | 3.2 | 0.00 | 0.00 | 0.00 | 61 | 1022.0 |
| 20260902152013 | 32 | 0 | 3.2 | 3.2 | 0.00 | 0.00 | 0.00 | 62 | 1022.0 |
| 20260902151509 | 32 | 356 | 1.6 | 3.2 | 0.00 | 0.00 | 0.00 | 62 | 1022.0 |
| 20260902151008 | 32 | 359 | 0.0 | 3.2 | 0.00 | 0.00 | 0.00 | 63 | 1022.0 |
| 20260902150503 | 32 | 1 | 3.2 | 3.2 | 0.00 | 0.00 | 0.00 | 64 | 1022.2 |
| 20260902145958 | 31 | 8 | 1.6 | 3.2 | 0.00 | 0.00 | 0.00 | 65 | 1022.0 |
| 20260902145453 | 31 | 3 | 0.0 | 3.2 | 0.00 | 0.00 | 0.00 | 65 | 1022.1 |
| 20260902144948 | 31 | 4 | 1.6 | 1.6 | 0.00 | 0.00 | 0.00 | 65 | 1021.9 |
| 20260902144444 | 31 | 16 | 0.0 | 4.8 | 0.00 | 0.00 | 0.00 | 67 | 1022.0 |
| 20260902143938 | 31 | 2 | 0.0 | 3.2 | 0.00 | 0.00 | 0.00 | 67 | 1022.1 |
| 20260902143434 | 31 | 8 | 0.0 | 9.7 | 0.00 | 0.00 | 0.00 | 67 | 1021.9 |
| 20260902142928 | 31 | 1 | 1.6 | 4.8 | 0.00 | 0.00 | 0.00 | 69 | 1022.1 |
| 20260902142424 | 31 | 7 | 1.6 | 3.2 | 0.00 | 0.00 | 0.00 | 69 | 1021.9 |
| 20260902141919 | 30 | 4 | 0.0 | 3.2 | 0.00 | 0.00 | 0.00 | 70 | 1021.9 |
| 20260902141415 | 30 | 11 | 0.0 | 3.2 | 0.00 | 0.00 | 0.00 | 72 | 1021.9 |
| 20260902140914 | 30 | 13 | 1.6 | 3.2 | 0.00 | 0.00 | 0.00 | 71 | 1022.0 |
| 20260902140410 | 30 | 4 | 1.6 | 1.6 | 0.00 | 0.00 | 0.00 | 73 | 1022.0 |
| 20260902135904 | 30 | 354 | 0.0 | 0.0 | 0.00 | 0.00 | 0.00 | 73 | 1021.6 |
| 20260902135400 | 29 | 2 | 0.0 | 1.6 | 0.00 | 0.00 | 0.00 | 74 | 1021.9 |
| 20260902134858 | 28 | 7 | 0.0 | 1.6 | 0.00 | 0.00 | 0.00 | 75 | 1022.0 |
| 20260902134358 | 28 | 6 | 0.0 | 3.2 | 0.00 | 0.00 | 0.00 | 76 | 1022.0 |
| 20260902133843 | 28 | 358 | 1.6 | 3.2 | 0.00 | 0.00 | 0.00 | 78 | 1021.7 |
| 20260902133343 | 27 | 10 | 0.0 | 1.6 | 0.00 | 0.00 | 0.00 | 80 | 1021.7 |
| 20260902132838 | 27 | 2 | 0.0 | 1.6 | 0.00 | 0.00 | 0.00 | 81 | 1021.7 |
| 20260902132333 | 27 | 7 | 0.0 | 1.6 | 0.00 | 0.00 | 0.00 | 81 | 1021.7 |
| 20260902131829 | 26 | 5 | 0.0 | 1.6 | 0.00 | 0.00 | 0.00 | 82 | 1022.1 |
| 20260902131326 | 26 | 4 | 1.6 | 1.6 | 0.00 | 0.00 | 0.00 | 83 | 1021.7 |
| 20260902130825 | 26 | 357 | 0.0 | 1.6 | 0.00 | 0.00 | 0.00 | 84 | 1021.9 |
| 20260902130321 | 25 | 347 | 1.6 | 1.6 | 0.00 | 0.00 | 0.00 | 85 | 1021.6 |
| 20260902125816 | 25 | 339 | 1.6 | 1.6 | 0.00 | 0.00 | 0.00 | 86 | 1021.8 |
| 20260902125312 | 25 | 7 | 0.0 | 1.6 | 0.00 | 0.00 | 0.00 | 87 | 1021.9 |
| 20260902124808 | 25 | 7 | 0.0 | 1.6 | 0.00 | 0.00 | 0.00 | 88 | 1021.8 |
| 20260902124304 | 24 | 32 | 1.6 | 1.6 | 0.00 | 0.00 | 0.00 | 88 | 1021.7 |
| 20260902123804 | 24 | 336 | 1.6 | 1.6 | 0.00 | 0.00 | 0.00 | 89 | 1021.5 |
| 20260902123300 | 23 | 356 | 0.0 | 1.6 | 0.00 | 0.00 | 0.00 | 90 | 1021.5 |
| 20260902122758 | 23 | 5 | 0.0 | 1.6 | 0.00 | 0.00 | 0.00 | 92 | 1021.5 |
| 20260902122254 | 23 | 356 | 0.0 | 0.0 | 0.00 | 0.00 | 0.00 | 92 | 1021.5 |
| 20260902121748 | 22 | 355 | 0.0 | 0.0 | 0.00 | 0.00 | 0.00 | 93 | 1021.5 |
| 20260902121243 | 22 | 357 | 0.0 | 0.0 | 0.00 | 0.00 | 0.00 | 94 | 1021.5 |
| 20260902120738 | 22 | 356 | 0.0 | 0.0 | 0.00 | 0.00 | 0.00 | 95 | 1021.8 |
| 20260902120235 | 22 | 355 | 0.0 | 0.0 | 0.00 | 0.00 | 0.00 | 96 | 1021.6 |
| 20260902115730 | 22 | 357 | 0.0 | 0.0 | 0.00 | 0.00 | 0.00 | 96 | 1021.4 |
| 20260902115226 | 22 | 357 | 0.0 | 0.0 | 0.00 | 0.00 | 0.00 | 97 | 1021.3 |
| 20260902114722 | 21 | 359 | 0.0 | 0.0 | 0.00 | 0.00 | 0.00 | 97 | 1021.6 |
| 20260902114217 | 21 | 357 | 0.0 | 0.0 | 0.00 | 0.00 | 0.00 | 97 | 1021.2 |
| 20260902113711 | 21 | 356 | 0.0 | 0.0 | 0.00 | 0.00 | 0.00 | 97 | 1021.4 |
| 20260902113207 | 21 | 356 | 0.0 | 0.0 | 0.00 | 0.00 | 0.00 | 97 | 1021.2 |
| 20260902112701 | 21 | 356 | 0.0 | 0.0 | 0.00 | 0.00 | 0.00 | 96 | 1021.2 |
| 20260902112159 | 21 | 356 | 0.0 | 0.0 | 0.00 | 0.00 | 0.00 | 96 | 1021.3 |
| 20260902111654 | 21 | 356 | 0.0 | 0.0 | 0.00 | 0.00 | 0.00 | 96 | 1021.4 |
| 20260902111149 | 21 | 356 | 0.0 | 0.0 | 0.00 | 0.00 | 0.00 | 96 | 1021.2 |
| 20260902110645 | 21 | 356 | 0.0 | 0.0 | 0.00 | 0.00 | 0.00 | 96 | 1021.1 |
| 20260902110141 | 21 | 356 | 0.0 | 0.0 | 0.00 | 0.00 | 0.00 | 96 | 1021.1 |
| 20260902105640 | 21 | 355 | 0.0 | 0.0 | 0.00 | 0.00 | 0.00 | 96 | 1021.2 |
| 20260902105136 | 21 | 357 | 0.0 | 0.0 | 0.00 | 0.00 | 0.00 | 96 | 1021.2 |
| 20260902104631 | 21 | 357 | 0.0 | 0.0 | 0.00 | 0.00 | 0.00 | 96 | 1021.2 |
| 20260902104126 | 21 | 357 | 0.0 | 0.0 | 0.00 | 0.00 | 0.00 | 96 | 1021.2 |
| 20260902103626 | 21 | 357 | 0.0 | 0.0 | 0.00 | 0.00 | 0.00 | 96 | 1021.1 |
| 20260902103121 | 21 | 357 | 0.0 | 0.0 | 0.00 | 0.00 | 0.00 | 95 | 1021.0 |
| 20260902102617 | 22 | 357 | 0.0 | 0.0 | 0.00 | 0.00 | 0.00 | 95 | 1021.3 |
| 20260902102114 | 22 | 357 | 0.0 | 0.0 | 0.00 | 0.00 | 0.00 | 95 | 1021.1 |
| 20260902101609 | 22 | 357 | 0.0 | 0.0 | 0.00 | 0.00 | 0.00 | 95 | 1021.2 |
| 20260902101109 | 22 | 357 | 0.0 | 0.0 | 0.00 | 0.00 | 0.00 | 95 | 1021.0 |
| 20260902100603 | 22 | 356 | 0.0 | 0.0 | 0.00 | 0.00 | 0.00 | 95 | 1021.1 |
| 20260902100058 | 22 | 356 | 0.0 | 0.0 | 0.00 | 0.00 | 0.00 | 95 | 1021.0 |
| 20260902095557 | 22 | 349 | 0.0 | 0.0 | 0.00 | 0.00 | 0.00 | 95 | 1020.9 |
| 20260902095056 | 22 | 358 | 0.0 | 1.6 | 0.00 | 0.00 | 0.00 | 95 | 1021.1 |
| 20260902094547 | 22 | 346 | 0.0 | 0.0 | 0.00 | 0.00 | 0.00 | 96 | 1021.2 |
| 20260902094042 | 22 | 8 | 0.0 | 0.0 | 0.00 | 0.00 | 0.00 | 96 | 1020.9 |
| 20260902093536 | 22 | 6 | 0.0 | 0.0 | 0.00 | 0.00 | 0.00 | 96 | 1021.1 |
| 20260902093031 | 22 | 5 | 0.0 | 0.0 | 0.00 | 0.00 | 0.00 | 96 | 1021.1 |
| 20260902092526 | 22 | 4 | 0.0 | 0.0 | 0.00 | 0.00 | 0.00 | 96 | 1021.1 |
| 20260902092021 | 22 | 4 | 0.0 | 0.0 | 0.00 | 0.00 | 0.00 | 96 | 1021.1 |
| 20260902091516 | 22 | 4 | 0.0 | 0.0 | 0.00 | 0.00 | 0.00 | 96 | 1021.0 |
| 20260902091012 | 22 | 4 | 0.0 | 0.0 | 0.00 | 0.00 | 0.00 | 96 | 1021.0 |
| 20260902090508 | 22 | 3 | 0.0 | 0.0 | 0.00 | 0.00 | 0.00 | 96 | 1021.0 |
| 20260902090007 | 22 | 8 | 0.0 | 0.0 | 0.00 | 0.00 | 0.00 | 96 | 1021.0 |
| 20260902085502 | 22 | 13 | 0.0 | 0.0 | 0.00 | 0.00 | 0.00 | 96 | 1020.9 |
| 20260902084956 | 22 | 13 | 0.0 | 0.0 | 0.00 | 0.00 | 0.00 | 96 | 1020.9 |
| 20260902084453 | 22 | 13 | 0.0 | 0.0 | 0.00 | 0.00 | 0.00 | 96 | 1021.0 |
| 20260902083949 | 22 | 13 | 0.0 | 0.0 | 0.00 | 0.00 | 0.00 | 96 | 1020.6 |
| 20260902083448 | 22 | 13 | 0.0 | 0.0 | 0.00 | 0.00 | 0.00 | 96 | 1020.4 |
| 20260902082943 | 22 | 13 | 0.0 | 0.0 | 0.00 | 0.00 | 0.00 | 95 | 1020.6 |
| 20260902082439 | 22 | 13 | 0.0 | 0.0 | 0.00 | 0.00 | 0.00 | 95 | 1020.5 |
| 20260902081935 | 22 | 13 | 0.0 | 0.0 | 0.00 | 0.00 | 0.00 | 95 | 1020.6 |
| 20260902081431 | 22 | 13 | 0.0 | 0.0 | 0.00 | 0.00 | 0.00 | 95 | 1020.5 |
| 20260902080926 | 22 | 13 | 0.0 | 0.0 | 0.00 | 0.00 | 0.00 | 95 | 1020.8 |
| 20260902080422 | 22 | 13 | 0.0 | 0.0 | 0.00 | 0.00 | 0.00 | 95 | 1020.5 |
| 20260902075922 | 22 | 13 | 0.0 | 0.0 | 0.00 | 0.00 | 0.00 | 94 | 1020.2 |
| 20260902075418 | 22 | 13 | 0.0 | 0.0 | 0.00 | 0.00 | 0.00 | 94 | 1020.4 |
| 20260902074913 | 22 | 13 | 0.0 | 0.0 | 0.00 | 0.00 | 0.00 | 94 | 1020.4 |
| 20260902074409 | 22 | 13 | 0.0 | 0.0 | 0.00 | 0.00 | 0.00 | 94 | 1020.3 |
| 20260902073903 | 22 | 13 | 0.0 | 0.0 | 0.00 | 0.00 | 0.00 | 94 | 1020.2 |
| 20260902073400 | 22 | 10 | 0.0 | 0.0 | 0.00 | 0.00 | 0.00 | 94 | 1020.3 |
| 20260902072855 | 22 | 9 | 0.0 | 0.0 | 0.00 | 0.00 | 0.00 | 94 | 1020.4 |
| 20260902072351 | 22 | 9 | 0.0 | 0.0 | 0.00 | 0.00 | 0.00 | 94 | 1020.3 |
| 20260902071848 | 22 | 9 | 0.0 | 0.0 | 0.00 | 0.00 | 0.00 | 94 | 1020.2 |
| 20260902071347 | 22 | 9 | 0.0 | 0.0 | 0.00 | 0.00 | 0.00 | 93 | 1020.1 |
| 20260902070843 | 22 | 9 | 0.0 | 0.0 | 0.00 | 0.00 | 0.00 | 93 | 1020.0 |
| 20260902070338 | 22 | 9 | 0.0 | 0.0 | 0.00 | 0.00 | 0.00 | 93 | 1020.1 |
| 20260902065836 | 22 | 9 | 0.0 | 0.0 | 0.00 | 0.00 | 0.00 | 93 | 1020.1 |
| 20260902065332 | 22 | 9 | 0.0 | 0.0 | 0.00 | 0.00 | 0.00 | 93 | 1020.0 |
| 20260902064827 | 22 | 9 | 0.0 | 0.0 | 0.00 | 0.00 | 0.00 | 93 | 1020.0 |
| 20260902064323 | 22 | 9 | 0.0 | 0.0 | 0.00 | 0.00 | 0.00 | 93 | 1020.1 |
| 20260902063818 | 22 | 9 | 0.0 | 0.0 | 0.00 | 0.00 | 0.00 | 93 | 1019.9 |
| 20260902063312 | 22 | 9 | 0.0 | 0.0 | 0.00 | 0.00 | 0.00 | 92 | 1019.9 |
| 20260902062807 | 22 | 9 | 0.0 | 0.0 | 0.00 | 0.00 | 0.00 | 92 | 1020.1 |
| 20260902062305 | 23 | 9 | 0.0 | 0.0 | 0.00 | 0.00 | 0.00 | 92 | 1019.8 |
| 20260902061801 | 23 | 9 | 0.0 | 0.0 | 0.00 | 0.00 | 0.00 | 92 | 1019.9 |
| 20260902061256 | 23 | 9 | 0.0 | 0.0 | 0.00 | 0.00 | 0.00 | 92 | 1019.9 |
| 20260902060754 | 23 | 9 | 0.0 | 0.0 | 0.00 | 0.00 | 0.00 | 92 | 1019.9 |